Location: Newark
(44.9333°N, 0.5667°E)
Time: 12:32:03
(UTC+00:00)

CUTE 1.7 + AOD 2 - Visible Passes

Search period start: 18 February 2020 00:00
Search period end: 28 February 2020 00:00
Orbit: 593 x 612 km, 97.6° (Epoch: 17 February)

Date Brightness Start Highest point End Pass type
(mag) Time Alt. Az. Time Alt. Az. Time Alt. Az.
18 Feb ? 05:19:20 10° NNE 05:23:34 82° ESE 05:27:45 10° S visible
19 Feb ? 03:58:29 10° ENE 03:59:13 10° E 03:59:57 10° E visible
19 Feb ? 05:31:19 10° N 05:35:32 74° WNW 05:39:42 10° SSW visible
20 Feb ? 04:09:04 10° ENE 04:11:20 14° E 04:13:35 10° ESE visible
20 Feb ? 05:43:21 10° N 05:47:29 54° WNW 05:51:34 10° SSW visible
21 Feb ? 04:20:25 10° NE 04:23:25 19° E 04:26:25 10° SE visible
21 Feb ? 05:55:27 10° N 05:59:24 40° WNW 06:03:19 10° SW visible
22 Feb ? 04:32:00 10° NE 04:35:30 25° E 04:38:57 10° SSE visible
22 Feb ? 06:07:36 10° N 06:11:18 31° WNW 06:14:59 10° SW visible
23 Feb ? 04:43:43 10° NNE 04:47:32 33° E 04:51:20 10° SSE visible
24 Feb ? 04:55:31 10° NNE 04:59:34 44° E 05:03:35 10° S visible
25 Feb ? 05:07:23 10° NNE 05:11:34 61° E 05:15:42 10° S visible
26 Feb ? 05:19:20 10° NNE 05:23:33 83° ESE 05:27:44 10° SSW visible
27 Feb ? 03:58:16 10° ENE 03:59:12 11° E 04:00:09 10° E visible
27 Feb ? 05:31:19 10° N 05:35:31 73° WNW 05:39:41 10° SSW visible
